Location: Cedarbrook
(36.3103°N, 86.6422°W)
Time: 08:20:11
(UTC+00:00)

Cosmos 1400 Rocket - Pass Details

Date: 29 October 2020
Orbit: 521 x 568 km, 81.2° (Epoch: 04 December)

Event Time Altitude Azimuth Distance (km) Brightness Sun altitude
Rises 23:26:06 0° 187° (S) 2,751 6.6 -7.3°
Reaches altitude 10° 23:28:17 10° 187° (S) 1,856 5.8 -7.8°
Maximum altitude 23:32:24 89° 95° (E) 569 2.9 -8.6°
Drops below altitude 10° 23:36:30 10° 9° (N) 1,853 5.3 -9.4°
Sets 23:38:40 0° 9° (N) 2,745 6.2 -9.8°
